Hourly Data Report for October 17, 2004

SHERBROOKE A
QUEBEC

45°26'00.000" N
71°41'00.000" W
241.40 m
7028124
71610
YSC

Download Data

Hourly Data (October 2004)
Hourly Data Report for October 17, 2004
TIME
LST
Temp Definition
°C
Dew Point Definition
°C
Rel Hum Definition
%
Precip. Amount Definition
mm

Wind Dir Definition
10's deg

Wind Spd Definition
km/h
Visibility Definition
km
Stn Press Definition
kPa
Hmdx Definition


Wind Chill Definition


Weather Definition


00:00 5.6 4.6 93   12 11 15.0 97.02      
01:00 3.8 3.0 95   10 4 15.0 97.07      
02:00 3.1 2.3 94     0 2.6 97.04      
03:00 4.2 3.4 95     0 15.0 97.06      
04:00 5.4 4.6 95   14 4 4.8 97.10     Rain
05:00 5.4 4.8 96   27 9 9.7 97.14     Rain
06:00 5.7 4.7 93   20 4 15.0 97.17      
07:00 5.7 4.4 91   22 7 24.1 97.23     Mostly Cloudy
08:00 7.4 5.9 90   20 9 24.1 97.26     Mostly Cloudy
09:00 8.2 4.8 79   22 19 24.1 97.27     Mostly Cloudy
10:00 8.0 4.0 76   23 15 24.1 97.29     Mostly Cloudy
11:00 8.7 3.3 69   21 13 24.1 97.28     Cloudy
12:00 7.5 3.0 73   24 17 19.3 97.28     Rain Showers
13:00 7.4 4.0 79   21 15 24.1 97.28     Rain Showers
14:00 8.0 4.1 76   22 11 24.1 97.30     Cloudy
15:00 7.6 2.3 69   23 15 24.1 97.34     Cloudy
16:00 6.9 2.7 75   22 11 24.1 97.40     Cloudy
17:00 6.4 2.2 74   22 11 15.0 97.43      
18:00 6.1 2.2 76   22 13 15.0 97.49      
19:00 5.0 3.4 89   25 11 9.7 97.54     Rain
20:00 4.9 3.1 88   19 9 15.0 97.58      
21:00 4.8 2.8 87   20 7 15.0 97.62     Drizzle
22:00 4.9 2.9 87   20 11 15.0 97.65     Rain
23:00 4.9 2.9 87   21 15 15.0 97.66     Rain

Notes on Data Quality.

Legend

  • E = Estimated
  • M = Missing
  • NA = Not Available*
  • [empty] = Indicates an unobserved value
Date modified: